Weather observations for the past three days for
Eastern WV Regional Airport/Shepherd Field
Imperial (Metric)
Date Time (edt) Wind (mph) Vis. (mi.) Weather Sky Cond. Temperature (ºF) Relative Humidity Wind Chill (°F) Heat Index (°F) Pressure Precipitation (in)
Air Dwpt 6 hour altimeter (in) sea level (mb) 1 hr 3 hr 6 hr
Max. Min.
22 18:53 SE 8 10.00 Partly Cloudy SCT075 79 69.1 72% 82 29.92 1012.7
22 17:53 SE 10 G 18 10.00 Mostly Cloudy BKN085 82 66 58% 84 29.92 1012.7
22 16:53 SE 10 G 21 10.00 Mostly Cloudy BKN040 84 66.9 57% 87 29.94 1013.2
22 15:53 S 10 10.00 Mostly Cloudy BKN035 82.9 66 57% 85 29.95 1013.8
22 14:53 S 12 G 21 10.00 Mostly Cloudy BKN031 84 66 55% 86 29.96 1013.9
22 13:53 S 14 G 23 10.00 A Few Clouds FEW031 84 66 84 70 55% 86 29.98 1014.7
22 12:53 S 7 10.00 Mostly Cloudy FEW022 BKN026 BKN032 80.1 70 71% 83 30.01 1015.6
22 11:53 S 7 10.00 Mostly Cloudy BKN011 BKN044 BKN050 77 72 85% 78 30.02 1016.0
22 10:53 Calm 10.00 Partly Cloudy FEW050 SCT110 73.9 70 88% 30.04 1016.7
22 09:53 Calm 10.00 Light Rain BKN017 BKN049 OVC110 73.9 66.9 79% 30.04 1016.9
22 08:53 Calm 10.00 A Few Clouds FEW039 FEW120 73 64.9 76% 30.03 1016.5
22 07:53 Calm 10.00 A Few Clouds FEW085 70 64 73 66.9 82% 30.03 1016.4
22 06:53 Calm 10.00 Fair CLR 68 64 87% 30.03 1016.5
22 05:53 Calm 10.00 A Few Clouds FEW090 66.9 62.1 84% 30.03 1016.4
22 04:53 Calm 10.00 Fair CLR 66.9 63 87% 30.02 1016.1
22 03:53 Calm 10.00 Fair CLR 68 63 84% 30.02 1016.1
22 02:53 Calm 10.00 Mostly Cloudy BKN070 70 63 79% 30.03 1016.4
22 01:53 Calm 10.00 A Few Clouds FEW085 72 63 82.9 71.1 73% 30.04 1016.7
22 00:53 Calm 10.00 Partly Cloudy SCT085 72 63 73% 30.05 1016.9
21 23:53 E 6 10.00 Fair CLR 73 63 71% 30.04 1016.5
21 22:53 N 3 10.00 Fair CLR 73.9 63 69% 30.04 1016.7
21 21:53 Calm 10.00 Fair CLR 73.9 62.1 67% 30.03 1016.4
21 20:53 S 5 10.00 Fair CLR 79 61 54% 80 30 1015.4
21 19:53 SE 5 10.00 Fair CLR 82.9 60.1 91 82.9 46% 83 29.99 1015.0
21 18:53 E 5 10.00 Fair CLR 86 59 40% 85 29.98 1014.8
21 17:53 SE 3 10.00 Fair CLR 87.1 57.9 37% 86 29.98 1014.7
21 16:53 E 6 10.00 Fair CLR 88 57.9 36% 87 29.99 1015.1
21 15:53 Vrbl 7 10.00 Mostly Cloudy BKN085 90 57.9 34% 89 30 1015.3
21 14:53 Vrbl 7 10.00 A Few Clouds FEW090 89.1 55.9 33% 87 30.01 1015.6
21 13:53 Calm 10.00 Fair CLR 88 53.1 89.1 69.1 30% 86 30.03 1016.3
21 12:53 NE 6 10.00 Partly Cloudy SCT065 87.1 55.9 35% 86 30.04 1016.5
21 11:53 N 8 10.00 Fair CLR 84.9 61 45% 85 30.04 1016.9
21 10:53 Vrbl 5 10.00 Fair CLR 82 63 53% 83 30.06 1017.3
21 09:53 Vrbl 3 10.00 Fair CLR 78.1 66.9 69% 80 30.06 1017.4
21 08:53 Calm 10.00 Fair CLR 73 68 84% 30.07 1017.6
21 07:53 Calm 9.00 Fair CLR 69.1 66.9 69.1 63 93% 30.06 1017.6
21 06:53 Calm 6.00 Fog/Mist CLR 64.9 64.9 100% 30.05 1017.3
21 05:53 Calm 7.00 Fair CLR 64 64 100% 30.05 1017.1
21 04:53 Calm 6.00 Fog/Mist CLR 64.9 64.9 100% 30.03 1016.4
21 03:53 Calm 10.00 Overcast OVC085 68 66 93% 30.02 1016.0
21 02:53 Calm 10.00 Mostly Cloudy BKN080 66.9 66 97% 30.02 1016.2
21 01:53 SE 3 8.00 Fair CLR 66 66 75 66 100% 30.02 1016.1
21 00:53 Calm 10.00 Fair CLR 68 66 93% 30.02 1016.2
20 23:53 Calm 10.00 Fair CLR 69.1 66.9 93% 30.04 1016.6
20 22:53 Calm 10.00 Fair CLR 70 66.9 90% 30.05 1016.9
20 21:53 S 5 10.00 Fair CLR 72 68 87% 30.04 1016.9
20 20:53 Vrbl 6 10.00 Mostly Cloudy BKN090 73 68 84% 30.04 1016.7
20 19:53 SE 6 10.00 Fair CLR 75 66.9 82.9 75 76% 76 30.04 1016.8
20 18:53 SE 9 10.00 Fair CLR 75 66.9 76% 76 30.03 1016.6
20 17:53 SE 10 G 20 10.00 Partly Cloudy SCT029 79 69.1 72% 82 30.02 1016.0
20 16:53 SE 12 G 17 10.00 Fair CLR 81 64 57% 83 30.03 1016.5
20 15:53 S 9 10.00 Fair CLR 79 64.9 62% 81 30.05 1016.9
20 14:53 S 7 10.00 A Few Clouds FEW120 78.1 64.9 64% 80 30.06 1017.4
20 13:53 SE 9 10.00 Fair CLR 79 66.9 80.1 70 67% 81 30.07 1017.8
20 12:53 S 8 10.00 Fair CLR 79 66.9 67% 81 30.08 1018.1
20 11:53 S 7 10.00 Fair CLR 78.1 68 71% 80 30.09 1018.4
20 10:53 S 7 10.00 Fair CLR 77 66.9 71% 79 30.09 1018.4
20 09:53 Vrbl 3 10.00 A Few Clouds FEW110 75.9 68 77% 77 30.1 1018.7
20 08:53 Calm 10.00 A Few Clouds FEW110 73 68 84% 30.1 1018.9
20 07:53 Calm 10.00 Overcast OVC100 71.1 68 71.1 66 90% 30.1 1018.9
20 06:53 Calm 10.00 Fair CLR 66.9 64.9 93% 30.09 1018.6
20 05:53 Calm 10.00 Fair CLR 66.9 64.9 93% 30.09 1018.5
20 04:53 Calm 10.00 Mostly Cloudy BKN085 BKN110 68 66 93% 30.09 1018.6
20 03:53 Calm 10.00 Light Rain OVC070 70 64 82% 30.09 1018.6
20 02:53 Vrbl 3 10.00 Overcast SCT060 OVC090 70 66 87% 30.09 1018.6
20 01:53 Calm 10.00 Light Rain BKN065 OVC075 70 68 80.1 70 93% 30.11 1019.0
20 00:53 SW 5 10.00 Overcast SCT050 SCT075 OVC100 72 66 82% 30.12 1019.3
19 23:53 Calm 10.00 Overcast FEW055 OVC090 73 64 74% 30.11 1019.2
19 22:53 S 5 10.00 Partly Cloudy SCT090 72 63 73% 30.1 1018.9
19 21:53 Calm 10.00 Fair CLR 72 63 73% 30.1 1018.7
19 20:53 Calm 10.00 Fair CLR 77 62.1 60% 79 30.08 1018.2
19 19:53 SE 6 10.00 Fair CLR 80.1 61 84.9 80.1 52% 81 30.07 1017.8
Date Time (edt) Wind (mph) Vis. (mi.) Weather Sky Cond. Air Dwpt Max. Min. Relative Humidity Wind Chill (°F) Heat Index (°F) altimeter (in) sea level (mb) 1 hr 3 hr 6 hr
6 hour
Temperature (ºF) Pressure Precipitation (in)